Weather History for Florence, SC

Change the Weather History Date:

Sunday, March 17, 2013

  Actual Average Record
Temperature  
Mean Temperature 69 °F 56 °F  
Max Temperature 81 °F 68 °F 85 °F (2012)
Min Temperature 56 °F 44 °F 25 °F (1988)
Degree Days  
Heating Degree Days 0 10  
Month to date heating degree days 245 198  
Since 1 July heating degree days 1992 2264  
Cooling Degree Days 4 1  
Month to date cooling degree days 8 4  
Year to date cooling degree days 29 10  
Growing Degree Days 18 (Base 50)    
Moisture  
Dew Point 47 °F    
Average Humidity 54    
Maximum Humidity 80    
Minimum Humidity 28    
Precipitation  
Precipitation 0.00 in 0.11 in 3.81 in (1983)
Month to date precipitation 0.32 1.89  
Year to date precipitation 6.84 8.04  
Sea Level Pressure  
Sea Level Pressure 29.94 in    
Wind  
Wind Speed 10 mph (WSW)    
Max Wind Speed 17 mph    
Max Gust Speed 22 mph    
Visibility 10 miles    
Events      
T = Trace of Precipitation, MM = Missing Value Source: NWS Daily Summary

Daily Weather History Graph

Daily Weather History Graph

Search for Another Location

Airport:

Trip Planner

Search our weather history database for the weather conditions in past years. The results will help you decide how hot, cold, wet, or windy it might be!

Date:

Astronomy

Mar. 17, 2013 Rise Set
Actual Time 7:26 AM EDT 7:28 PM EDT
Civil Twilight 7:01 AM EDT 7:53 PM EDT
Nautical Twilight 6:32 AM EDT 8:22 PM EDT
Astronomical Twilight 6:02 AM EDT 8:51 PM EDT
Moon 10:52 AM EDT (3/17) 12:20 AM EDT (3/17)
Length of Visible Light 12h 52m
Length of Day
12h 02m
Waxing Crescent, 31% of the Moon is Illuminated
Mar 17
Waxing Crescent
Mar 19
First Quarter
Mar 27
Full
Apr 3
Last Quarter
Apr 10
New

Hourly Weather History & Observations

Time (EDT) Temp. Dew Point Humidity Pressure Visibility Wind Dir Wind Speed Gust Speed Precip Events Conditions
12:53 AM 66.9 °F 41.0 °F 39% 29.88 in 10.0 mi WSW 10.4 mph - N/A   Clear
1:53 AM 66.0 °F 41.0 °F 40% 29.89 in 10.0 mi WSW 10.4 mph - N/A   Clear
2:53 AM 63.0 °F 42.1 °F 46% 29.91 in 10.0 mi WSW 9.2 mph - N/A   Clear
3:53 AM 62.1 °F 42.1 °F 48% 29.91 in 10.0 mi WSW 6.9 mph - N/A   Clear
4:53 AM 61.0 °F 43.0 °F 52% 29.91 in 10.0 mi SW 6.9 mph - N/A   Clear
5:53 AM 59.0 °F 43.0 °F 55% 29.92 in 10.0 mi WSW 6.9 mph - N/A   Clear
6:53 AM 57.9 °F 44.1 °F 60% 29.93 in 10.0 mi SW 5.8 mph - N/A   Clear
7:53 AM 57.9 °F 46.0 °F 65% 29.95 in 10.0 mi SW 6.9 mph - N/A   Clear
8:53 AM 63.0 °F 48.0 °F 58% 29.96 in 10.0 mi West 10.4 mph - N/A   Clear
9:53 AM 66.9 °F 48.9 °F 52% 29.97 in 10.0 mi WSW 13.8 mph 19.6 mph N/A   Clear
10:53 AM 71.1 °F 48.9 °F 45% 29.97 in 10.0 mi West 10.4 mph - N/A   Clear
11:53 AM 75.0 °F 48.9 °F 40% 29.96 in 10.0 mi West 10.4 mph - N/A   Clear
12:53 PM 77.0 °F 48.9 °F 37% 29.95 in 10.0 mi WSW 10.4 mph - N/A   Clear
1:53 PM 79.0 °F 48.0 °F 34% 29.93 in 10.0 mi West 9.2 mph - N/A   Clear
2:53 PM 80.1 °F 46.9 °F 31% 29.89 in 10.0 mi SW 13.8 mph 20.7 mph N/A   Clear
3:53 PM 79.0 °F 42.1 °F 27% 29.88 in 10.0 mi SW 12.7 mph - N/A   Partly Cloudy
4:53 PM 78.1 °F 46.9 °F 33% 29.89 in 10.0 mi SSW 9.2 mph 16.1 mph N/A   Mostly Cloudy
5:53 PM 75.9 °F 46.0 °F 35% 29.91 in 10.0 mi SSW 10.4 mph - N/A   Partly Cloudy
6:53 PM 73.9 °F 46.9 °F 38% 29.91 in 10.0 mi SSW 9.2 mph - N/A   Partly Cloudy
7:53 PM 71.1 °F 48.9 °F 45% 29.94 in 10.0 mi SW 8.1 mph - N/A   Clear
8:53 PM 68.0 °F 52.0 °F 56% 29.97 in 10.0 mi NNE 8.1 mph - N/A   Overcast
9:53 PM 61.0 °F 51.1 °F 70% 30.01 in 10.0 mi ENE 10.4 mph - N/A   Partly Cloudy
10:53 PM 57.9 °F 51.1 °F 78% 30.04 in 9.0 mi ENE 10.4 mph - N/A   Scattered Clouds
11:53 PM 57.0 °F 51.1 °F 81% 30.05 in 9.0 mi ENE 11.5 mph - N/A   Partly Cloudy